sat.trackr.live / text

‹ back to catalog

STARLINK-31014

NORAD 58538 · 2023-192H

PAYLOAD ACTIVE UNKNOWN

§ Identity

Operator
Country
US
Launch date
2023-12-08
Launch site
AFWTR
Launch vehicle
Mass (kg)
RCS (m²)

Purposes: comms

External: N2YO · Heavens-Above · Gunter

§ Orbital elements

Epoch: 2026-09-20T15:39:19.775808Z

Period
93.85 min
Inclination
53.1601°
Eccentricity
0.0001334
Mean motion
15.34380552 rev/d
Perigee alt
461.8 km
Apogee alt
463.7 km
Semi-major
6,840.9 km
B*
-6.8966e-6
RAAN
233.0007°
Arg perigee
100.5089°
Mean anomaly
259.6064°
Rev number
15,589

§ Raw data

STARLINK-310141 58538U 23192H   26263.65231222 -.00000609  00000+0 -68966-5 0  99942 58538  53.1601 233.0007 0001334 100.5089 259.6064 15.34380552155892

JSON: /api/v1/satellites/58538 · /tle

For live sub-satellite position, see the globe view (requires WebGL).

§ Visibility from observer

Set your observer location to see the next 7 days of passes ≥ 10°. The values pass through the URL so the page stays shareable.

No JS? Fill the form by hand. The geolocation button needs JavaScript.